Flag for Switzerland Weather past 2 weeks in Basel, Basel-Stadt, Switzerland

Now
27 °F

Passing clouds.


Feels Like: 27 °F
Forecast: 31 / 54 °F
Wind: 2 mph from Northwest

Location: Bale-Mulhouse

Current Time: Mar 6, 2015 at 7:26:26 AM

Latest Report: Mar 6, 2015 at 6:00 AM


Visibility: 6 mi

Pressure: 30.70 "Hg

Humidity: 96%

Dew point: 26 °F

Location of BaselLocation

Historic Weather in Basel — Graph

°F

Basel temperature yesterday

Maximum temperature yesterday: 46 °F (at 3:00 PM)
Minimum temperature yesterday: 32 °F (at 11:00 PM)
Average temperature yesterday: 39 °F

Past Weeks' High & Low Weather Summary

 TemperatureHumidityPressure
High60 °F (Feb 20, 4:00 PM)99% (Feb 28, 9:00 AM)30.70 "Hg (Feb 28, 9:00 AM)
Low27 °F (Mar 6, 6:00 AM)19% (Feb 20, 5:00 PM)29.59 "Hg (Feb 21, 7:00 AM)
Average40 °F78%30.07 "Hg
* Reported Feb 19 6:00 AM — Mar 6 6:00 AM, Basel, Weather by CustomWeather, © 2015

Note: Actual official high and low records may vary slightly from our data, if they occured in-between our weather recording intervals... More about our weather records

Advertising

Basel weather history for previous 24 hours

 ConditionsComfort  
Time TempWeatherWind HumidityBarometerVisibility
6:00 AM
Fri, Mar 6
27 °FPassing clouds.2 mph96%30.70 "Hg6 mi
5:00 AM27 °FClear.1 mph95%30.68 "Hg9 mi
3:00 AM29 °FChilly.2 mph94%30.68 "Hg12 mi
2:00 AM29 °FChilly.1 mph90%30.68 "Hg14 mi
1:00 AM30 °FChilly.2 mph85%30.68 "Hg14 mi
12:00 AM30 °FPassing clouds.5 mph89%30.68 "Hg12 mi
11:00 PM
Thu, Mar 5
32 °FPassing clouds.2 mph86%30.67 "Hg19 mi
10:00 PM33 °FPassing clouds.2 mph78%30.67 "Hg19 mi
9:00 PM37 °FPassing clouds.2 mph65%30.65 "Hg19 mi
7:00 PM41 °FOvercast.7 mph53%30.63 "Hg12 mi
6:00 PM43 °FOvercast.7 mph48%30.60 "Hg12 mi
5:00 PM45 °FOvercast.9 mph48%30.60 "Hg12 mi
4:00 PM46 °FOvercast.13 mph47%30.59 "Hg12 mi
3:00 PM46 °FOvercast.13 mph48%30.59 "Hg12 mi
2:00 PM45 °FScattered clouds.13 mph50%30.60 "Hg19 mi
1:00 PM45 °FScattered clouds.12 mph52%30.61 "Hg19 mi
12:00 PM43 °FScattered clouds.12 mph60%30.62 "Hg19 mi
11:00 AM42 °FPartly sunny.9 mph69%30.65 "Hg19 mi
10:00 AM40 °FScattered clouds.12 mph71%30.63 "Hg19 mi
9:00 AM39 °FOvercast.7 mph77%30.63 "Hg16 mi
8:00 AM35 °FPartly sunny.3 mph87%30.63 "Hg19 mi
7:00 AM35 °FPassing clouds.2 mph84%30.61 "Hg19 mi
Weather by CustomWeather, © 2015

See weather overviewHow to use our weather pages